METEOSAT-12 (MTG-I1)

Last updated on Tue Sep 22 2026 00:02:53 GMT+0000 (Coordinated Universal Time)

1 54743U 22170C 26264.56022434 -.00000011 00000+0 00000+0 0 9992 2 54743 0.7380 20.1712 0003792 94.5154 86.9816 1.00272870 13947
UTC large
Height (km)
Speed (km/s)
/
Latitude / Longitude
Inclination (degrees)
Orbital Period (minutes)
Azimuth
Elevation
Range (km)
Doppler Factor

Next 0 passes for location: London (51.5072 / 0.1276)

No passes found over London.
METEOSAT-12 (MTG-I1)